M I D A S
Marine Information and Data Acquisition System
Tripno 58 of the Zeeleeuw from 2001-07-30 06:34:18 to 2001-07-30 16:30:00
Back to CruiseResearch ActivitiesStationsMapUnderway DataData graphs

EquipmentUnitsComment
TimeDGPSUTC
LatitudeDGPSDM.mWGS84
LongitudeDGPSDM.mWGS84
HeadingGyrodeg 
SOGDGPSknotsSpeed over ground
COGDGPSdegCourse over ground
DepthEcho soundermeters200 kHz
Missing or incorrect values are displayed as -999
Navigation data collected by the RV Zeeleeuw from 2001-07-30 06:34:18 to 2001-07-30 16:30:00
Time Latitude Longitude Heading SOG COG Depth
2001-07-30 06:35:24 51°13.675 2°55.925 0.2   87.5 -999
2001-07-30 06:36:49 51°13.676 2°55.925 359.8   295.2 -999
2001-07-30 06:37:49 51°13.676 2°55.924 359.8   301.1 -999
2001-07-30 06:38:45 51°13.676 2°55.924 359.8   294.9 -999
2001-07-30 06:39:45 51°13.676 2°55.924     213.1 -999
2001-07-30 06:40:45 51°13.676 2°55.924 0.2   298 -999
2001-07-30 06:41:45 51°13.676 2°55.924     330.5 -999
2001-07-30 06:42:45 51°13.676 2°55.924     147 -999
2001-07-30 06:43:45 51°13.676 2°55.924     316.6 -999
2001-07-30 06:44:43 51°13.676 2°55.924 0.2   311.3 4.6
2001-07-30 06:45:45 51°13.676 2°55.924     196.6 -999
2001-07-30 06:46:45 51°13.676 2°55.924 0.3   144.1 4.5
2001-07-30 06:47:45 51°13.676 2°55.924 130.3   34.3 -999
2001-07-30 06:48:45 51°13.676 2°55.924 129.8   203.1 -999
2001-07-30 06:49:45 51°13.676 2°55.924 130.5   102.6 -999
2001-07-30 06:50:44 51°13.677 2°55.924 130.5   194.5 -999
2001-07-30 06:51:43 51°13.677 2°55.924 130.5   73.8 -999
2001-07-30 06:52:45 51°13.678 2°55.924 130.5   142.2 -999
2001-07-30 06:53:45 51°13.678 2°55.924 130.5   123.1 -999
2001-07-30 06:54:45 51°13.678 2°55.924 130.3   201.7 4.4
2001-07-30 06:55:45 51°13.678 2°55.924 130.5   189.7 -999
2001-07-30 06:56:43 51°13.676 2°55.924 130.3   136.5 -999
2001-07-30 06:57:45 51°13.675 2°55.924 130.5   198.6 -999
2001-07-30 06:58:45 51°13.676 2°55.924 130.3   289.7 -999
2001-07-30 06:59:53 51°13.676 2°55.924 130.5   231 -999
2001-07-30 07:00:53 51°13.676 2°55.924 130.2   179.6 -999
2001-07-30 07:01:53 51°13.676 2°55.924 130.3   112.9 -999
2001-07-30 07:02:54 51°13.676 2°55.924 130.5   67.2 -999
2001-07-30 07:03:53 51°13.676 2°55.924 130.7   145.7 -999
2001-07-30 07:04:53 51°13.676 2°55.924 130.8   200.5 -999
2001-07-30 07:05:53 51°13.676 2°55.923 130.8   195.7 -999
2001-07-30 07:06:53 51°13.676 2°55.923 130.8   221.4 -999
2001-07-30 07:07:53 51°13.676 2°55.923 130.8   235 -999
2001-07-30 07:08:53 51°13.676 2°55.923 130.7   229.2 -999
2001-07-30 07:09:53 51°13.676 2°55.923 130.7   215 -999
2001-07-30 07:10:54 51°13.676 2°55.923 130.8   175.3 -999
2001-07-30 07:11:53 51°13.676 2°55.923 131   208.8 -999
2001-07-30 07:12:53 51°13.677 2°55.924 130.7   44.5 -999
2001-07-30 07:13:53 51°13.677 2°55.924 130.7   341.1 -999
2001-07-30 07:14:54 51°13.677 2°55.924 130.7   319.3 -999
2001-07-30 07:15:54 51°13.676 2°55.924 131   244.5 -999
2001-07-30 07:16:54 51°13.676 2°55.924 131   339.6 -999
2001-07-30 07:17:53 51°13.676 2°55.924 131.3   315 -999
2001-07-30 07:18:53 51°13.676 2°55.924 131.5   40.8 -999
2001-07-30 07:19:53 51°13.676 2°55.923 131.7   343.6 -999
2001-07-30 07:20:54 51°13.676 2°55.924 131.7   343.9 -999
2001-07-30 07:21:53 51°13.676 2°55.924 131.8   359 -999
2001-07-30 07:22:53 51°13.676 2°55.924 131.3   112.6 -999
2001-07-30 07:23:53 51°13.675 2°55.926 127   113.5 -999
2001-07-30 07:24:53 51°13.674 2°55.927 111.2 0.1 156.2 -999
2001-07-30 07:25:53 51°13.672 2°55.924 93.7 0.6 273.4 -999
2001-07-30 07:26:54 51°13.672 2°55.869 91.3 3.3 269.4 -999
2001-07-30 07:27:53 51°13.672 2°55.783 88.8 2.9 269.1 -999
2001-07-30 07:28:53 51°13.679 2°55.753 53.5 2.3 41.9 8.1
2001-07-30 07:29:53 51°13.764 2°55.72 329.3 6.7 326.9 6.8
2001-07-30 07:30:53 51°13.871 2°55.614 339.2 8.1 335.4 8.2
2001-07-30 07:31:53 51°14.003 2°55.526 342.2 8.8 338.3 8.6
2001-07-30 07:32:53 51°14.132 2°55.43 335.2 8 332 8.4
2001-07-30 07:33:53 51°14.253 2°55.297 320.8 9.1 318.3 8.5
2001-07-30 07:34:53 51°14.349 2°55.111 310.8 9.1 307.8 8.4
2001-07-30 07:35:53 51°14.49 2°54.976 337.7 11.1 338.8 7.9
2001-07-30 07:36:53 51°14.667 2°54.858 331 11.6 334.2 7.7
2001-07-30 07:37:53 51°14.841 2°54.722 331.3 11.9 334.3 7.7
2001-07-30 07:38:53 51°15.025 2°54.582 331.3 12.3 333.9 6.9
2001-07-30 07:39:53 51°15.216 2°54.424 333 13.3 335.1 7.2
2001-07-30 07:40:53 51°15.415 2°54.263 330 13.4 331.1 7.8
2001-07-30 07:41:53 51°15.613 2°54.095 332.2 13.5 333.5 8.6
2001-07-30 07:42:53 51°15.812 2°53.93 330.2 13.6 332.5 9.5
2001-07-30 07:43:53 51°16.017 2°53.775 333.2 13.6 335.2 10.1
2001-07-30 07:44:53 51°16.216 2°53.613 328.2 13.4 330.3 10.5
2001-07-30 07:45:53 51°16.408 2°53.439 328 13.2 330.6 10.7
2001-07-30 07:46:53 51°16.601 2°53.272 328 13.2 330.2 10.3
2001-07-30 07:47:53 51°16.789 2°53.091 327.2 13.2 328.8 9.3
2001-07-30 07:48:53 51°16.976 2°52.908 326.7 13.3 328 7.3
2001-07-30 07:49:53 51°17.17 2°52.727 326.5 13.4 328 8.1
2001-07-30 07:50:53 51°17.337 2°52.5 314.8 13.2 316.4 8.6
2001-07-30 07:51:53 51°17.497 2°52.26 315.7 13.2 316.9 8.9
2001-07-30 07:52:53 51°17.648 2°52.006 310.2 13.1 311.5 8.9
2001-07-30 07:53:53 51°17.757 2°51.718 285.2 12.4 286.6 8.6
2001-07-30 07:54:53 51°17.824 2°51.404 288.3 12.6 289.4 8.9
2001-07-30 07:55:53 51°17.894 2°51.089 287.7 12.6 289.5 9.7
2001-07-30 07:56:53 51°17.969 2°50.775 294.3 12.8 295.4 10.8
2001-07-30 07:57:53 51°18.058 2°50.466 294.5 12.8 295.9 11.7
2001-07-30 07:58:53 51°18.157 2°50.163 295.2 12.9 296.5 12.4
2001-07-30 07:59:53 51°18.243 2°49.85 293 12.8 293.3 12.3
2001-07-30 08:00:53 51°18.333 2°49.544 295.5 12.7 296.1 10.8
2001-07-30 08:01:53 51°18.424 2°49.241 293.3 12.6 293.9 9.1
2001-07-30 08:02:53 51°18.495 2°48.928 293.7 12.5 293.6 8.7
2001-07-30 08:03:53 51°18.601 2°48.637 294.5 12.7 295.3 9.4
2001-07-30 08:04:53 51°18.668 2°48.321 288 12.5 288.5 11.8
2001-07-30 08:05:53 51°18.748 2°48.012 289.8 12.7 290.8 13.4
2001-07-30 08:06:53 51°18.839 2°47.705 298.5 12.9 299.7 15.7
2001-07-30 08:07:53 51°18.936 2°47.4 294.7 12.9 296.5 17.3
2001-07-30 08:08:53 51°19.015 2°47.085 287 12.7 288.7 18.9
2001-07-30 08:09:53 51°19.088 2°46.768 290.7 12.9 292.3 19.3
2001-07-30 08:10:53 51°19.158 2°46.446 284.2 12.7 286.1 19.1
2001-07-30 08:11:53 51°19.201 2°46.118 280.7 12.6 281.3 18.1
2001-07-30 08:12:53 51°19.285 2°45.813 297.2 12.6 297.9 15.6
2001-07-30 08:13:53 51°19.379 2°45.516 293 12.5 293.9 11.4
2001-07-30 08:14:53 51°19.496 2°45.243 310.5 12.7 313 11.7
2001-07-30 08:17:13 51°19.748 2°44.563 292 12.6 294 20.9
2001-07-30 08:18:13 51°19.822 2°44.245 285.7 12.7 287.5 22.4
2001-07-30 08:19:13 51°19.91 2°43.937 292.2 12.8 294.4 24.1
2001-07-30 08:20:13 51°19.986 2°43.62 289 12.9 290.2 25.1
2001-07-30 08:21:13 51°20.061 2°43.297 290 13 291.8 24.5
2001-07-30 08:22:13 51°20.137 2°42.974 289.3 12.9 290.2 24.2
2001-07-30 08:23:13 51°20.223 2°42.661 293.3 12.8 295.1 22.3
2001-07-30 08:24:13 51°20.301 2°42.352 291.8 12.4 292.1 20.1
2001-07-30 08:25:13 51°20.377 2°42.046 293.3 12.4 294.2 16.5
2001-07-30 08:26:13 51°20.457 2°41.741 288.8 12.4 290.9 19.5
2001-07-30 08:27:13 51°20.524 2°41.43 286.5 12.5 288.3 20.5
2001-07-30 08:28:13 51°20.605 2°41.121 294.5 12.7 296.9 26.1
2001-07-30 08:29:13 51°20.703 2°40.818 293.8 12.9 296.2 24.9
2001-07-30 08:30:13 51°20.796 2°40.507 289.5 12.9 292.4 25.4
2001-07-30 08:31:13 51°20.875 2°40.186 285.7 12.9 288.5 24.6
2001-07-30 08:32:13 51°20.948 2°39.862 287.7 13.1 289.9 23.1
2001-07-30 08:33:13 51°21.034 2°39.548 298.3 13 299.1 23.6
2001-07-30 08:34:13 51°21.146 2°39.255 299.5 12.9 300.3 23.3
2001-07-30 08:35:13 51°21.268 2°38.979 321.3 13 321.7 23.7
2001-07-30 08:36:13 51°21.483 2°38.865 345.8 13.9 346.4 24.5
2001-07-30 08:37:13 51°21.71 2°38.787 345.7 13.9 346.4 25.8
2001-07-30 08:38:13 51°21.936 2°38.712 348.2 14 348.9 26.7
2001-07-30 08:39:13 51°22.167 2°38.696 8.8 14.3 9.1 28
2001-07-30 08:40:13 51°22.392 2°38.837 24 14.8 23.6 28
2001-07-30 08:41:13 51°22.612 2°39.012 27.8 14.8 27.3 28.5
2001-07-30 08:42:13 51°22.831 2°39.192 26.7 14.9 26 28.3
2001-07-30 08:43:13 51°23.052 2°39.366 26 14.7 25.4 28.1
2001-07-30 08:44:13 51°23.278 2°39.517 21.5 14.8 20.9 27.6
2001-07-30 08:45:13 51°23.508 2°39.658 22.2 14.7 21.1 27.5
2001-07-30 08:46:13 51°23.739 2°39.779 18.8 14.7 18 26.1
2001-07-30 08:47:13 51°23.973 2°39.895 18.3 14.7 17.7 26.1
2001-07-30 08:48:13 51°24.209 2°39.991 14.5 14.6 13.4 25
2001-07-30 08:49:13 51°24.435 2°40.132 29.3 14.7 28.2 23.7
2001-07-30 08:50:13 51°24.64 2°40.344 36.5 14.6 35 22.8
2001-07-30 08:51:13 51°24.841 2°40.567 34.5 14.7 32.8 24.4
2001-07-30 08:52:13 51°25.056 2°40.753 29.8 14.6 27.7 23.7
2001-07-30 08:53:13 51°25.276 2°40.918 26.3 14.6 25 23.8
2001-07-30 08:54:13 51°25.497 2°41.075 32.3 14.6 29.3 21.8
2001-07-30 08:55:13 51°25.717 2°41.241 23.8 14.6 22.4 25.3
2001-07-30 08:56:13 51°25.934 2°41.416 32.2 14.7 29.7 23.4
2001-07-30 08:57:13 51°26.148 2°41.606 31.3 14.8 29.5 26.8
2001-07-30 08:58:13 51°26.367 2°41.787 27.7 14.8 26.1 27.1
2001-07-30 08:59:13 51°26.576 2°41.99 37.8 14.7 35.5 28.1
2001-07-30 09:00:13 51°26.772 2°42.23 44.3 14.9 41.3 28.6
2001-07-30 09:01:13 51°26.945 2°42.512 49 14.8 46.7 29.5
2001-07-30 09:02:13 51°27.072 2°42.847 69.7 14.8 65.1 29.4
2001-07-30 09:03:13 51°27.186 2°43.198 65.7 14.9 61.9 28.1
2001-07-30 09:04:13 51°27.313 2°43.54 64.3 14.8 60.2 27.2
2001-07-30 09:05:13 51°27.414 2°43.9 74.5 14.9 70.2 25.6
2001-07-30 09:06:13 51°27.465 2°44.286 93.5 14.7 87.4 24.8
2001-07-30 09:07:13 51°27.404 2°44.648 125.2 14 118 25.5
2001-07-30 09:08:13 51°27.242 2°44.896 150.8 13.4 145.2 25.5
2001-07-30 09:09:13 51°27.049 2°45.078 157 13.5 150.3 26.9
2001-07-30 09:10:13 51°26.854 2°45.248 157.3 13.4 150.2 26.5
2001-07-30 09:11:13 51°26.663 2°45.431 150.3 13.5 142.8 26.3
2001-07-30 09:12:13 51°26.51 2°45.699 142.7 13.6 135 26.3
2001-07-30 09:13:13 51°26.326 2°45.895 158 13.3 150.8 24
2001-07-30 09:14:13 51°26.124 2°46.024 166.7 13 160.1 24.2
2001-07-30 09:15:13 51°25.923 2°46.161 162.3 13.2 155.6 23
2001-07-30 09:16:13 51°25.718 2°46.271 172.3 12.9 165.7 21.9
2001-07-30 09:17:13 51°25.51 2°46.353 175.8 12.9 168.8 20.8
2001-07-30 09:18:13 51°25.3 2°46.417 176 12.7 169 23.4
2001-07-30 09:19:13 51°25.093 2°46.512 162.7 13.1 156.3 22.9
2001-07-30 09:20:13 51°24.915 2°46.719 138.5 13.7 131.7 22.8
2001-07-30 09:21:13 51°24.833 2°47.066 102.3 14.4 95.6 27.8
2001-07-30 09:22:13 51°24.88 2°47.449 78 14.9 71.2 29
2001-07-30 09:23:13 51°24.98 2°47.813 70 15 63.7 26.6
2001-07-30 09:24:13 51°25.102 2°48.166 64.5 15.2 58.6 27.9
2001-07-30 09:25:13 51°25.233 2°48.508 67.7 15 61.9 27
2001-07-30 09:26:13 51°25.359 2°48.856 65 15.2 59.9 22.8
2001-07-30 09:27:13 51°25.497 2°49.196 59.7 15.2 55.1 21.3
2001-07-30 09:28:13 51°25.635 2°49.535 65 15.3 60 20.9
2001-07-30 09:29:13 51°25.786 2°49.858 48.5 15.1 45.7 21
2001-07-30 09:30:13 51°25.992 2°50.081 26 14.9 25.3 21.2
2001-07-30 09:31:13 51°26.23 2°50.15 357.8 14.4 359.5 21.5
2001-07-30 09:32:13 51°26.459 2°50.071 340.8 14.1 343.4 21.2
2001-07-30 09:33:13 51°26.68 2°49.945 333.5 14 336.4 18.5
2001-07-30 09:34:13 51°26.892 2°49.795 334.5 14 335.9 19.3
2001-07-30 09:35:13 51°27.108 2°49.658 336.5 13.9 338 20.8
2001-07-30 09:36:13 51°27.312 2°49.492 329.5 13.7 331.8 21.3
2001-07-30 09:37:13 51°27.512 2°49.315 332.5 13.8 334.4 23.4
2001-07-30 09:38:13 51°27.724 2°49.169 335 13.8 337 23.2
2001-07-30 09:39:13 51°27.943 2°49.042 338.3 14.1 340.6 23
2001-07-30 09:40:13 51°28.155 2°48.891 333.3 13.9 336.1 23.2
2001-07-30 09:41:13 51°28.37 2°48.751 336.3 14 338.9 25.7
2001-07-30 09:42:13 51°28.589 2°48.708 27.3 13.3 25.2 30
2001-07-30 09:43:13 51°28.687 2°49.04 71.2 14.8 67.3 27.2
2001-07-30 09:44:13 51°28.794 2°49.398 68.7 15 64 26
2001-07-30 09:45:13 51°28.903 2°49.76 68.8 15 64.3 24.3
2001-07-30 09:46:13 51°29.008 2°50.123 69.5 15.1 64.6 25.2
2001-07-30 09:47:13 51°29.108 2°50.489 73 15 67.9 26
2001-07-30 09:48:13 51°29.215 2°50.855 70.2 15.1 64.8 26.1
2001-07-30 09:49:13 51°29.314 2°51.222 70.2 15 65.2 25.1
2001-07-30 09:50:13 51°29.431 2°51.575 68 15 62.6 26
2001-07-30 09:51:13 51°29.524 2°51.943 74.2 14.9 68.7 27.9
2001-07-30 09:52:13 51°29.59 2°52.318 96.8 14.2 89.1 28
2001-07-30 09:53:13 51°29.452 2°52.545 171.3 12.3 164.1 28.7
2001-07-30 09:54:13 51°29.259 2°52.696 158 13.1 150.7 26.4
2001-07-30 09:55:13 51°29.067 2°52.855 159.7 13.1 152.3 24.3
2001-07-30 09:56:13 51°28.872 2°53.019 158.2 13.2 151.7 23.6
2001-07-30 09:57:13 51°28.679 2°53.176 162.3 13.1 156 23.4
2001-07-30 09:58:13 51°28.48 2°53.326 157 13.3 150.1 21.9
2001-07-30 09:59:13 51°28.289 2°53.494 158.3 13.1 151.8 18.8
2001-07-30 10:00:13 51°28.095 2°53.645 162.5 13 157 18.3
2001-07-30 10:01:13 51°27.904 2°53.805 161.5 13 154.7 18.2
2001-07-30 10:02:13 51°27.713 2°53.97 157.3 13.1 148.9 19
2001-07-30 10:03:13 51°27.522 2°54.134 159.8 13.2 151.1 23.4
2001-07-30 10:04:13 51°27.381 2°54.394 113.2 14 105.7 26.2
2001-07-30 10:05:13 51°27.473 2°54.731 43.5 14.6 40.7 26.7
2001-07-30 10:06:13 51°27.672 2°54.975 42.5 15.2 38.4 25.3
2001-07-30 10:07:13 51°27.865 2°55.237 44.7 15.2 40.4 25.3
2001-07-30 10:08:13 51°28.057 2°55.501 43.5 15.3 40.1 25.2
2001-07-30 10:09:13 51°28.255 2°55.757 43.3 15.3 39.2 24.7
2001-07-30 10:10:13 51°28.447 2°56.017 44.2 14.9 40.1 23.6
2001-07-30 10:11:13 51°28.634 2°56.274 45.2 14.8 40.4 22.7
2001-07-30 10:12:13 51°28.823 2°56.529 44.8 15 39.7 22.4
2001-07-30 10:13:13 51°29.017 2°56.787 44.5 15.1 39.8 21.7
2001-07-30 10:14:13 51°29.208 2°57.049 45.7 15.2 41.2 19.8
2001-07-30 10:15:13 51°29.403 2°57.31 42.5 15.2 38.4 20.6
2001-07-30 10:16:13 51°29.595 2°57.572 46.2 15.2 42.1 22.4
2001-07-30 10:17:13 51°29.792 2°57.818 44.5 15.1 40.4 22.3
2001-07-30 10:18:13 51°29.987 2°58.074 45.5 15.2 41.7 23.8
2001-07-30 10:19:13 51°30.179 2°58.339 43.7 15.2 39.7 24.7
2001-07-30 10:20:13 51°30.37 2°58.602 43.7 15.2 40.2 24.7
2001-07-30 10:21:13 51°30.563 2°58.863 45.2 15.2 40.9 25.3
2001-07-30 10:22:13 51°30.758 2°59.121 42.7 15.2 38.3 25
2001-07-30 10:23:13 51°30.951 2°59.384 43.3 15.3 39.4 25.3
2001-07-30 10:24:13 51°31.093 2°59.703 78.7 14.8 71.3 25.2
2001-07-30 10:25:13 51°31.083 3°0.07 122 13.5 112.6 24.3
2001-07-30 10:26:13 51°30.929 3°0.306 158.3 12.7 149.3 24.8
2001-07-30 10:27:13 51°30.738 3°0.451 157.2 12.9 149.6 24.9
2001-07-30 10:28:13 51°30.555 3°0.635 154 13 146.1 24.3
2001-07-30 10:29:13 51°30.383 3°0.852 148.8 13.2 140.7 25.3
2001-07-30 10:30:13 51°30.22 3°1.092 141.8 13.5 134 25.7
2001-07-30 10:31:13 51°30.063 3°1.349 141.8 13.5 134.3 26.2
2001-07-30 10:32:13 51°29.897 3°1.59 150.5 13.4 142.5 25
2001-07-30 10:33:13 51°29.713 3°1.78 156.2 13 149.4 24.4
2001-07-30 10:34:13 51°29.523 3°1.943 157.2 12.9 150.9 22.7
2001-07-30 10:35:13 51°29.327 3°2.079 165 12.8 159.4 21.1
2001-07-30 10:36:13 51°29.128 3°2.206 164.7 12.9 158.5 19.8
2001-07-30 10:37:13 51°28.93 3°2.335 165.3 12.8 158.8 20.2
2001-07-30 10:38:13 51°28.732 3°2.466 163.7 12.9 157.4 20.5
2001-07-30 10:39:13 51°28.534 3°2.59 166.3 12.9 159.2 20.9
2001-07-30 10:40:13 51°28.334 3°2.692 170.7 12.6 163.6 21.3
2001-07-30 10:41:13 51°28.137 3°2.803 168.2 12.6 160.9 20.9
2001-07-30 10:42:13 51°27.936 3°2.907 169.2 12.7 163.3 19.8
2001-07-30 10:43:13 51°27.732 3°3.008 167 12.8 162.8 17.1
2001-07-30 10:44:13 51°27.533 3°3.135 163.7 12.9 159.3 13.2
2001-07-30 10:45:13 51°27.332 3°3.239 165.2 12.7 161.1 11
2001-07-30 10:46:13 51°27.13 3°3.347 165.3 12.8 161.1 11.7
2001-07-30 10:47:13 51°26.929 3°3.454 168.7 12.6 164.7 10.5
2001-07-30 10:48:13 51°26.744 3°3.615 141.5 13 136.7 9
2001-07-30 10:49:13 51°26.585 3°3.846 133.2 13.1 129.5 8.1
2001-07-30 10:50:13 51°26.466 3°4.144 128 13.4 123.1 8.5
2001-07-30 10:51:13 51°26.355 3°4.453 125.2 13.4 119.4 8.7
2001-07-30 10:52:13 51°26.235 3°4.751 122.5 13.5 117.9 8.9
2001-07-30 10:53:13 51°26.135 3°5.069 122.7 13.3 117 8.8
2001-07-30 10:54:13 51°26.024 3°5.377 125.3 13.3 120.2 8.3
2001-07-30 10:55:13 51°25.914 3°5.685 123.5 13.3 117.7 8.1
2001-07-30 10:56:13 51°25.818 3°6.005 122.2 13.3 117.5 7.4
2001-07-30 10:57:13 51°25.676 3°6.262 138.7 13 134.4 7.9
2001-07-30 10:58:13 51°25.542 3°6.54 132.7 13.3 127.6 7.7
2001-07-30 10:59:13 51°25.413 3°6.828 126.2 13.4 121.8 7.5
2001-07-30 11:00:13 51°25.313 3°7.147 121.3 13.3 116 6.9
2001-07-30 11:01:13 51°25.223 3°7.471 117.2 13.3 112.3 6
2001-07-30 11:02:13 51°25.135 3°7.796 117.8 13.3 112.2 5.5
2001-07-30 11:03:13 51°25.06 3°8.128 116 13.3 111.2 5.1
2001-07-30 11:04:13 51°24.977 3°8.457 112 13.4 107.4 5.7
2001-07-30 11:05:13 51°24.907 3°8.796 110.5 13.4 106 6.1
2001-07-30 11:06:13 51°24.838 3°9.136 109.7 13.5 105.9 6.4
2001-07-30 11:07:13 51°24.776 3°9.479 114.7 13.3 110.5 6.8
2001-07-30 11:08:13 51°24.7 3°9.81 105 13.4 101.6 7.5
2001-07-30 11:09:13 51°24.672 3°10.165 98.7 13.5 94.8 7.9
2001-07-30 11:10:13 51°24.658 3°10.525 95.8 13.6 92.3 8.5
2001-07-30 11:11:13 51°24.689 3°10.884 85 13.7 80.7 9.2
2001-07-30 11:12:13 51°24.717 3°11.243 81.2 13.6 77.7 9.4
2001-07-30 11:13:13 51°24.81 3°11.574 64.5 13.7 59.9 9.2
2001-07-30 11:14:13 51°24.975 3°11.823 35.2 13.9 31.3 8.4
2001-07-30 11:15:13 51°25.175 3°11.811 323.5 12.8 322.9 7.5
2001-07-30 11:16:13 51°25.342 3°11.57 314.5 13.7 314.4 7.1
2001-07-30 11:17:13 51°25.494 3°11.299 310 13.7 310.4 6.2
2001-07-30 11:18:13 51°25.619 3°11 299.2 13.4 300.1 5.3
2001-07-30 11:19:13 51°25.749 3°10.705 308 13.7 308.6 4.8
2001-07-30 11:20:13 51°25.867 3°10.39 298.8 13.9 299.1 5
2001-07-30 11:21:13 51°25.955 3°10.051 290.8 13.7 291.3 5
2001-07-30 11:22:13 51°26.06 3°9.724 299.7 13.8 299.5 5.6
2001-07-30 11:23:13 51°26.205 3°9.432 307.2 14.1 307.4 5.9
2001-07-30 11:24:13 51°26.314 3°9.107 292.8 13.8 293.7 6.6
2001-07-30 11:25:13 51°26.434 3°8.793 304.8 13.9 305.1 7.5
2001-07-30 11:26:13 51°26.574 3°8.496 309.3 14 309.1 8
2001-07-30 11:27:13 51°26.724 3°8.211 309.5 14 309.4 8.7
2001-07-30 11:28:13 51°26.863 3°7.911 302.5 13.9 302.6 7.6
2001-07-30 11:29:13 51°26.993 3°7.601 306 14 305.9 8.5
2001-07-30 11:30:13 51°27.134 3°7.304 307.2 14 307 9
2001-07-30 11:31:13 51°27.266 3°6.996 303.8 13.9 304 9.8
2001-07-30 11:32:13 51°27.404 3°6.698 308.2 14 307.9 10.6
2001-07-30 11:33:13 51°27.565 3°6.429 323.3 13.9 322 11.4
2001-07-30 11:34:13 51°27.781 3°6.385 25 13.6 20.2 11.6
2001-07-30 11:35:13 51°27.919 3°6.653 73.5 13.4 67.8 11.8
2001-07-30 11:36:13 51°28.017 3°6.979 68 13.7 61.9 11.7
2001-07-30 11:37:13 51°28.118 3°7.307 71.5 13.7 65.3 11.5
2001-07-30 11:38:13 51°28.206 3°7.643 69.3 13.7 62.9 11.1
2001-07-30 11:39:13 51°28.312 3°7.967 71.2 13.7 64.3 11
2001-07-30 11:40:13 51°28.411 3°8.295 70.2 13.8 63.1 10
2001-07-30 11:41:13 51°28.515 3°8.622 70.8 13.8 63.9 11.3
2001-07-30 11:42:13 51°28.605 3°8.96 81.7 13.6 75 12
2001-07-30 11:43:13 51°28.594 3°9.311 111.3 13.3 104.9 11.6
2001-07-30 11:44:13 51°28.53 3°9.648 114.7 13.2 108.2 10.8
2001-07-30 11:45:13 51°28.475 3°9.988 108.7 13.2 102.1 10.2
2001-07-30 11:46:13 51°28.422 3°10.328 112.3 13.2 105.7 9.4
2001-07-30 11:47:13 51°28.355 3°10.659 116.2 12.9 109.8 8.5
2001-07-30 11:48:13 51°28.263 3°10.962 130 12.5 124.7 7.9
2001-07-30 11:49:13 51°28.133 3°11.223 133.3 12.5 128.9 7.2
2001-07-30 11:50:13 51°27.999 3°11.476 136.7 12.4 132.2 6.6
2001-07-30 11:51:13 51°27.866 3°11.725 135.2 12.4 131 6.2
2001-07-30 11:52:13 51°27.731 3°11.972 140 12.1 136.2 5.9
2001-07-30 11:53:13 51°27.597 3°12.22 130.3 12.4 125.5 5.7
2001-07-30 11:54:13 51°27.46 3°12.46 139 12.3 135 5.4
2001-07-30 11:55:13 51°27.314 3°12.689 140.2 12.2 136.4 5.2
2001-07-30 11:56:13 51°27.168 3°12.917 141.3 12.2 137.4 4.9
2001-07-30 11:57:13 51°27.021 3°13.141 144.3 12.2 140.3 4.8
2001-07-30 11:58:13 51°26.868 3°13.356 140.3 12.3 136 4.7
2001-07-30 11:59:13 51°26.722 3°13.587 141.3 12.2 137.5 4.6
2001-07-30 12:00:13 51°26.578 3°13.812 129.3 12.2 124.3 4.4
2001-07-30 12:01:13 51°26.445 3°14.053 138.2 12.1 134 4.2
2001-07-30 12:02:13 51°26.306 3°14.283 142 11.9 137.4 3.9
2001-07-30 12:03:13 51°26.158 3°14.498 142.7 12 139 3.8
2001-07-30 12:04:13 51°26.011 3°14.715 139.5 12.1 136 4
2001-07-30 12:05:13 51°25.889 3°14.975 132.3 12.2 128.9 4.5
2001-07-30 12:06:13 51°25.767 3°15.241 130.8 12.4 127.6 4.9
2001-07-30 12:07:13 51°25.645 3°15.508 125.3 12.4 122.4 5.1
2001-07-30 12:08:13 51°25.539 3°15.794 121.8 12.6 118.7 5.4
2001-07-30 12:09:13 51°25.452 3°16.099 120.3 12.6 116.3 6.1
2001-07-30 12:10:13 51°25.356 3°16.395 120.3 12.5 116.9 6.9
2001-07-30 12:11:13 51°25.264 3°16.693 119.7 12.4 116.7 7.4
2001-07-30 12:12:13 51°25.176 3°16.991 116.2 12.4 113.6 8.1
2001-07-30 12:13:13 51°25.089 3°17.288 118.7 12.3 116.6 9.1
2001-07-30 12:14:13 51°24.995 3°17.579 113.5 12.3 111.3 9.8
2001-07-30 12:15:13 51°24.914 3°17.878 118 12.2 116.4 10.1
2001-07-30 12:16:13 51°24.818 3°18.168 121.7 12.1 120.3 10.4
2001-07-30 12:17:13 51°24.679 3°18.409 138.5 12.5 139 12.4
2001-07-30 12:18:13 51°24.506 3°18.589 153.7 12.6 155.8 14.9
2001-07-30 12:19:13 51°24.303 3°18.69 168.7 12.9 171.7 14.6
2001-07-30 12:20:13 51°24.086 3°18.693 181.2 13.2 184.5 11.5
2001-07-30 12:21:13 51°23.868 3°18.631 191.8 13.5 194.9 9.5
2001-07-30 12:22:13 51°23.655 3°18.513 200.5 13.7 203.8 7.9
2001-07-30 12:23:13 51°23.458 3°18.331 216.3 13.8 219.2 7
2001-07-30 12:24:13 51°23.334 3°18.02 255.2 14.2 254.3 6.3
2001-07-30 12:25:13 51°23.296 3°17.642 263.8 14.4 262 5.6
2001-07-30 12:26:13 51°23.26 3°17.262 264.5 14.4 262.7 5.2
2001-07-30 12:27:13 51°23.236 3°16.878 264.5 14.5 263.1 5.1
2001-07-30 12:28:13 51°23.212 3°16.491 265.5 14.6 264.1 5.1
2001-07-30 12:29:13 51°23.187 3°16.106 268.5 14.6 266.7 4.9
2001-07-30 12:30:13 51°23.152 3°15.723 260.8 14.5 260.2 4.9
2001-07-30 12:31:13 51°23.127 3°15.336 261.2 14.7 260.3 5.3
2001-07-30 12:32:13 51°23.093 3°14.95 261.3 14.6 260.6 5.9
2001-07-30 12:33:13 51°23.036 3°14.574 254.8 14.5 254.3 6.5
2001-07-30 12:34:13 51°22.966 3°14.21 262.3 14.3 260.9 6.9
2001-07-30 12:35:13 51°22.933 3°13.833 262.5 14.4 261.4 7.2
2001-07-30 12:36:13 51°22.894 3°13.453 259.5 14.5 259.1 7.4
2001-07-30 12:37:13 51°22.879 3°13.069 269.8 14.5 267.7 7.8
2001-07-30 12:38:13 51°22.86 3°12.687 264.8 14.4 263.1 8.5
2001-07-30 12:39:13 51°22.83 3°12.309 261.8 14.3 260.6 9.2
2001-07-30 12:40:13 51°22.795 3°11.936 264 14.1 262.5 9.8
2001-07-30 12:41:13 51°22.765 3°11.564 261.8 14.1 260.6 10.2
2001-07-30 12:42:13 51°22.723 3°11.195 260 14.1 258.9 10.5
2001-07-30 12:43:13 51°22.674 3°10.827 257.8 14.1 257.1 10.9
2001-07-30 12:44:13 51°22.62 3°10.462 259.3 14.1 258.6 11.6
2001-07-30 12:45:13 51°22.567 3°10.099 254 14 254.2 12.8
2001-07-30 12:46:13 51°22.497 3°9.744 257.8 14.1 257.4 9.5
2001-07-30 12:47:13 51°22.443 3°9.378 257.7 14.2 257.3 9.1
2001-07-30 12:48:13 51°22.382 3°9.012 256.3 14.2 255.9 8.9
2001-07-30 12:49:13 51°22.324 3°8.645 254.3 14.2 254 8.7
2001-07-30 12:50:13 51°22.269 3°8.277 259.2 14.2 258 8.4
2001-07-30 12:51:13 51°22.201 3°7.916 257.3 14.2 256.3 8.2
2001-07-30 12:52:13 51°22.146 3°7.55 252.8 14.1 252 8.1
2001-07-30 12:53:13 51°22.062 3°7.2 250.5 14.2 249.5 8
2001-07-30 12:54:13 51°21.981 3°6.847 253.7 14.2 252.4 7.6
2001-07-30 12:55:13 51°21.909 3°6.488 254.8 14.2 253.8 7.6
2001-07-30 12:56:13 51°21.84 3°6.126 253.2 14.3 252.2 7.3
2001-07-30 12:57:13 51°21.773 3°5.763 253.3 14.2 252.7 7.1
2001-07-30 12:58:13 51°21.711 3°5.402 261.3 14.1 259.6 7
2001-07-30 12:59:13 51°21.659 3°5.037 256.8 14 255.3 7
2001-07-30 13:00:13 51°21.582 3°4.684 250.8 14 249.5 6.7
2001-07-30 13:01:13 51°21.494 3°4.338 250.5 14 249.1 6.6
2001-07-30 13:02:13 51°21.412 3°3.988 251.3 14.1 250 6.6
2001-07-30 13:03:13 51°21.325 3°3.64 249.3 14.1 248.1 6.5
2001-07-30 13:04:13 51°21.24 3°3.292 249.5 14 248.4 6.5
2001-07-30 13:05:13 51°21.158 3°2.942 250.2 14.1 248.9 6.5
2001-07-30 13:06:13 51°21.071 3°2.595 248.5 14 247.5 6.5
2001-07-30 13:07:13 51°20.985 3°2.248 250 14 248.7 6.5
2001-07-30 13:08:13 51°20.899 3°1.901 251 14.1 249.4 6.5
2001-07-30 13:09:13 51°20.814 3°1.552 250.3 14.1 249 6.3
2001-07-30 13:10:13 51°20.729 3°1.203 248.8 14.1 247.8 6.2
2001-07-30 13:11:13 51°20.647 3°0.851 251.8 14.2 250.6 6.2
2001-07-30 13:12:13 51°20.559 3°0.5 248.2 14.2 247.2 6.2
2001-07-30 13:13:13 51°20.48 3°0.147 257.8 14.2 255.3 6.3
2001-07-30 13:14:13 51°20.397 2°59.795 249.8 14.2 248.5 6.4
2001-07-30 13:15:13 51°20.308 2°59.445 249.8 14.2 248.4 6.4
2001-07-30 13:16:13 51°20.222 2°59.093 251.2 14.3 249.2 6.4
2001-07-30 13:17:13 51°20.131 2°58.743 248.8 14.2 247.5 6.5
2001-07-30 13:18:13 51°20.047 2°58.389 251.2 14.3 249.4 6.5
2001-07-30 13:19:13 51°19.963 2°58.037 250.8 14.2 249.3 6.5
2001-07-30 13:20:13 51°19.875 2°57.682 250.8 14.4 248.8 6.7
2001-07-30 13:21:13 51°19.785 2°57.328 252.2 14.4 249.9 6.7
2001-07-30 13:22:13 51°19.696 2°56.976 249.2 14.2 247.4 6.9
2001-07-30 13:23:13 51°19.606 2°56.625 249.8 14.2 248.4 6.9
2001-07-30 13:24:13 51°19.523 2°56.272 250.7 14.2 248.9 7.1
2001-07-30 13:25:13 51°19.43 2°55.922 248.8 14.2 247.2 7.2
2001-07-30 13:26:13 51°19.346 2°55.569 250.7 14.3 248.7 7.4
2001-07-30 13:27:13 51°19.261 2°55.218 254.2 14.1 251.8 7.4
2001-07-30 13:28:13 51°19.187 2°54.861 254.8 14.2 252.1 7.5
2001-07-30 13:29:13 51°19.101 2°54.51 252.8 14.2 250.3 7.5
2001-07-30 13:30:13 51°18.994 2°54.178 235.2 14.1 234.2 7.4
2001-07-30 13:31:13 51°18.846 2°53.884 230.3 14.1 229.8 7.3
2001-07-30 13:32:13 51°18.694 2°53.596 232 14.2 231.4 7.1
2001-07-30 13:33:13 51°18.548 2°53.301 230.2 14.2 229.9 6.9
2001-07-30 13:34:13 51°18.397 2°53.01 231.8 14.3 231.3 6.8
2001-07-30 13:35:13 51°18.249 2°52.714 229.8 14.2 229.4 6.5
2001-07-30 13:36:13 51°18.067 2°52.479 206.8 14 208.2 6.1
2001-07-30 13:37:13 51°17.852 2°52.342 193.3 13.9 195.3 6.1
2001-07-30 13:38:13 51°17.625 2°52.283 184 13.9 185.8 6.1
2001-07-30 13:39:13 51°17.398 2°52.311 166.3 13.7 168.5 6
2001-07-30 13:40:15 51°17.189 2°52.468 148.8 13.4 151.2 5.6
2001-07-30 13:41:13 51°16.994 2°52.611 155.3 13.4 156.8 5.9
2001-07-30 13:42:13 51°16.791 2°52.757 155.5 13.5 156.8 5
2001-07-30 13:43:13 51°16.584 2°52.898 156.3 13.6 157.9 -999
2001-07-30 13:44:14 51°16.375 2°53.04 155.3 13.3 157.2 7.9
2001-07-30 13:45:13 51°16.173 2°53.177 154.8 13.3 156.9 7.9
2001-07-30 13:46:13 51°15.973 2°53.329 152 13.4 154.2 7.5
2001-07-30 13:47:13 51°15.773 2°53.482 148 13.1 150.9 7
2001-07-30 13:48:15 51°15.58 2°53.679 143.7 13.4 146.6 6.3
2001-07-30 13:49:13 51°15.4 2°53.862 143.8 13.3 147.1 5.4
2001-07-30 13:50:13 51°15.215 2°54.053 143.3 13.1 146.5 4.6
2001-07-30 13:51:13 51°15.033 2°54.248 143.2 13.2 145.9 4
2001-07-30 13:52:15 51°14.847 2°54.455 143.7 13.5 145.7 4.9
2001-07-30 13:53:13 51°14.674 2°54.66 140.7 13.4 143.5 4.7
2001-07-30 13:54:13 51°14.499 2°54.874 137.5 13.3 140.7 5
2001-07-30 13:55:13 51°14.338 2°55.115 133.3 13.3 132 5.4
2001-07-30 13:56:14 51°14.208 2°55.331 143.5 8.3 140.4 5.2
2001-07-30 13:57:13 51°14.113 2°55.405 158.5 6.2 157 5.2
2001-07-30 13:58:17 51°14.011 2°55.479 158 6.8 155.9 5.4
2001-07-30 13:59:18 51°13.9 2°55.558 157 7.3 156 5.4
2001-07-30 14:00:18 51°13.809 2°55.638 146.8 5.3 146.6 5.4
2001-07-30 14:01:18 51°13.755 2°55.714 138 3.8 137.3 5.4
2001-07-30 14:02:18 51°13.716 2°55.78 125.3 3.2 126.1 5.4
2001-07-30 14:03:18 51°13.695 2°55.851 112 2.9 110.8 -999
2001-07-30 14:04:18 51°13.678 2°55.918 126 2.3 119.5 -999
2001-07-30 14:05:18 51°13.676 2°55.923 133.3 0.1 57.9 -999
2001-07-30 14:06:18 51°13.676 2°55.924 131.7   250 -999